Lincoln, NE

10:48 PM CST on November 17, 2019 (GMT -0600)
Lincoln Municipal

Weather History for KLNK - August, 2019

Change the Weather History Date:

Monday, August 5, 2019

  Actual Average Record
Temperature  
Mean Temperature 78 °F 77 °F  
Max Temperature 88 °F 88 °F 109 °F (1934)
Min Temperature 68 °F 66 °F 48 °F (1974)
Degree Days  
Heating Degree Days 0 0  
Month to date heating degree days 0 0  
Since 1 June heating degree days 6 17  
Since 1 July heating degree days 0 1  
Cooling Degree Days 13 12  
Month to date cooling degree days 57 60  
Year to date cooling degree days 803 771  
Since 1 June cooling degree days 731 692  
Growing Degree Days 28 (Base 50)    
Moisture  
Dew Point 69 °F    
Average Humidity 74    
Maximum Humidity 90    
Minimum Humidity 57    
Precipitation  
Precipitation 0.00 in 0.10 in 1.60 in (1902)
Month to date precipitation 0.02 0.52  
Year to date precipitation 21.89 18.61  
Snow  
Snow 0.00 in 0.00 in 0.00 in (2006)
Month to date snowfall 0.0 0.0  
Since 1 June snowfall 0.0 0.0  
Since 1 July snowfall 0.0 0.0  
Snow Depth 0.00 in    
Sea Level Pressure  
Sea Level Pressure 29.93 in    
Wind  
Wind Speed 6 mph (SSW)    
Max Wind Speed 14 mph    
Max Gust Speed 18 mph    
Visibility 10 miles    
Events      
T = Trace of Precipitation, MM = Missing Value Source: NWS Daily Summary

Daily Weather History Graph

Daily Weather History Graph

Search for Another Location

Airport or City:

Astronomy

Aug. 05, 2019 Rise Set
Actual Time 6:27 AM CDT 8:38 PM CDT
Civil Twilight 5:56 AM CDT 9:08 PM CDT
Nautical Twilight 5:19 AM CDT 9:45 PM CDT
Astronomical Twilight 4:38 AM CDT 10:26 PM CDT
Moon 11:46 AM CDT (8/5) 11:48 PM CDT (8/5)
Length of Visible Light 15h 12m
Length of Day
14h 11m
Waxing Crescent, 28% of the Moon is Illuminated
Aug 5
Waxing Crescent
Aug 7
First Quarter
Aug 15
Full
Aug 23
Last Quarter
Aug 30
New

Hourly Weather History & Observations

Time (CDT) Temp. Heat Index Dew Point Humidity Pressure Visibility Wind Dir Wind Speed Gust Speed Precip Events Conditions
12:54 AM 72.0 °F - 68.0 °F 87% 29.97 in 10.0 mi South 5.8 mph - N/A   Clear
1:54 AM 73.9 °F - 68.0 °F 82% 29.99 in 10.0 mi Calm Calm - N/A   Clear
2:54 AM 72.0 °F - 66.9 °F 84% 29.96 in 10.0 mi South 3.5 mph - N/A   Clear
3:54 AM 72.0 °F - 66.9 °F 84% 29.96 in 10.0 mi SW 3.5 mph - N/A   Clear
4:54 AM 71.1 °F - 66.0 °F 84% 29.95 in 10.0 mi SSE 3.5 mph - N/A   Clear
5:54 AM 70.0 °F - 66.0 °F 87% 29.95 in 9.0 mi South 3.5 mph - N/A   Clear
6:54 AM 69.1 °F - 64.9 °F 87% 29.97 in 7.0 mi Calm Calm - N/A   Clear
7:54 AM 73.0 °F - 64.9 °F 76% 29.99 in 10.0 mi South 4.6 mph - N/A   Clear
8:54 AM 75.0 °F - 66.9 °F 76% 29.99 in 10.0 mi South 6.9 mph - N/A   Clear
9:54 AM 78.1 °F - 69.1 °F 74% 29.97 in 10.0 mi South 6.9 mph - N/A   Scattered Clouds
10:54 AM 81.0 °F 84.4 °F 70.0 °F 69% 29.94 in 10.0 mi South 9.2 mph - N/A   Clear
11:54 AM 86.0 °F 90.7 °F 70.0 °F 59% 29.94 in 10.0 mi SSW 10.4 mph - N/A   Clear
12:54 PM 84.9 °F 90.1 °F 71.1 °F 63% 29.93 in 10.0 mi SW 10.4 mph - N/A   Clear
1:54 PM 88.0 °F 94.7 °F 72.0 °F 59% 29.91 in 10.0 mi SSW 10.4 mph - N/A   Scattered Clouds
2:54 PM 86.0 °F 93.0 °F 73.0 °F 65% 29.91 in 10.0 mi SW 11.5 mph - N/A   Clear
3:54 PM 84.0 °F 89.0 °F 71.1 °F 65% 29.91 in 10.0 mi WSW 10.4 mph - N/A   Clear
4:54 PM 84.0 °F 90.2 °F 73.0 °F 69% 29.88 in 10.0 mi SW 9.2 mph - N/A   Clear
5:54 PM 84.0 °F 90.2 °F 73.0 °F 69% 29.87 in 10.0 mi SW 10.4 mph - N/A   Clear
6:54 PM 84.9 °F 90.1 °F 71.1 °F 63% 29.86 in 10.0 mi WSW 8.1 mph - N/A   Clear
7:54 PM 82.9 °F 88.0 °F 72.0 °F 69% 29.86 in 10.0 mi WSW 5.8 mph - N/A   Clear
8:54 PM 78.1 °F - 71.1 °F 79% 29.86 in 10.0 mi SSW 3.5 mph - N/A   Clear
9:54 PM 78.1 °F - 72.0 °F 81% 29.87 in 10.0 mi West 3.5 mph - N/A   Clear
10:54 PM 77.0 °F - 72.0 °F 84% 29.88 in 10.0 mi Calm Calm - N/A   Mostly Cloudy
11:54 PM 78.1 °F - 72.0 °F 81% 29.89 in 10.0 mi NNW 6.9 mph - N/A   Mostly Cloudy